Location: Peterborough
(44.3091°N, 78.3197°W)
Time: 06:10:47
(UTC-04:00)

A-11 Canister half - Pass Details

Date: 26 March 2023
Orbit: 1513 x 1686 km, 47.2° (Epoch: 04 June)

Event Time Altitude Azimuth Distance (km) Brightness Sun altitude
Rises 22:35:29 0° 237° (WSW) 4,792 11.8 -30.7°
Reaches altitude 10° 22:38:33 10° 236° (SW) 3,831 11.2 -31.1°
Maximum altitude 22:48:21 76° 152° (SSE) 1,697 8.9 -32.4°
Enters shadow 22:50:38 58° 87° (E) 1,889 9.1 -32.7°
